Theta_e
310 310 311 310 308 307 306 305 304 303 303 303 304 304 305 306 306 307 312 322 320 314 318 318 319 319 319 317 312 322 316 317 316 311 310 309 309 310 310 311 310 309 307 305 306 303 299 318 314 308 320 323 322 321
310 310 310 309 307 307 306 305 303 302 302 301 302 303 304 306 306 305 311 320 321 315 316 321 322 321 320 318 321 324 320 319 323 313 313 313 309 312 310 305 316 307 312 309 308 307 317 318 319 322 324 322 323 322
310 309 309 308 307 306 306 305 303 302 301 300 301 303 303 304 305 304 311 316 316 310 310 311 312 320 323 321 324 317 318 328 328 330 319 315 310 313 307 308 310 314 317 309 309 312 313 317 319 323 325 324 324 324
309 309 308 307 306 306 305 304 302 302 301 300 301 303 303 303 304 304 308 316 316 313 305 308 315 316 320 324 324 324 322 328 330 325 315 312 309 316 310 311 311 313 316 311 310 314 315 316 318 322 324 324 322 323
308 308 308 307 306 305 305 304 302 301 301 300 301 302 302 303 304 305 309 314 318 313 306 307 314 314 319 322 322 321 324 323 318 316 314 312 315 317 316 314 309 314 313 309 307 315 315 316 320 323 320 321 322 321
307 308 307 307 306 306 304 303 302 301 300 300 302 303 302 303 304 307 303 311 316 317 309 303 314 313 315 320 321 319 319 317 315 313 313 317 321 317 309 307 315 316 317 319 314 319 320 319 320 321 319 320 322 319
306 307 307 307 306 305 304 303 302 302 301 301 303 302 302 303 305 304 305 309 307 319 307 301 304 312 314 317 318 317 318 315 313 312 310 312 313 312 308 303 312 314 315 316 317 317 314 314 314 318 319 322 319 320
306 306 306 305 305 304 304 303 302 302 301 302 303 302 303 303 303 303 310 303 307 311 308 301 305 308 315 309 309 315 312 313 312 310 311 308 310 310 303 309 311 312 312 311 313 316 315 317 317 319 323 321 319 318
305 305 305 305 305 304 304 304 303 303 303 304 303 303 305 302 300 307 307 307 314 313 303 301 301 301 313 310 310 311 311 306 311 306 306 307 304 301 306 308 308 309 309 309 311 313 315 314 315 319 320 319 316 318
304 305 305 305 304 304 304 304 304 303 304 304 303 301 297 302 308 310 308 307 306 307 307 302 305 306 308 308 307 307 308 304 302 305 309 304 303 311 310 312 312 310 310 311 309 309 313 313 313 317 318 318 318 319
304 305 305 305 304 304 304 304 305 305 303 302 300 302 307 306 306 303 298 298 301 298 302 302 304 305 311 305 305 308 305 305 298 303 303 301 301 307 311 312 314 314 313 313 314 314 315 315 315 317 318 319 319 318
304 304 305 305 304 304 304 304 305 303 303 303 306 306 306 304 300 294 294 296 296 294 301 300 302 307 309 315 308 308 303 304 297 308 302 298 305 310 312 311 313 316 316 314 314 314 316 315 316 319 320 319 319 317
303 304 304 304 304 304 305 305 304 304 302 308 305 298 299 299 290 289 287 292 293 299 301 302 301 307 310 310 306 305 299 299 308 301 299 302 313 312 314 315 315 316 315 315 315 317 317 317 319 320 320 320 318 315
303 303 304 304 304 304 305 305 304 303 305 300 296 287 293 291 293 293 294 296 301 301 301 302 302 303 305 302 304 298 302 303 297 296 297 305 312 314 317 316 314 314 314 315 315 316 316 317 319 321 320 319 315 314
303 303 303 304 304 304 304 305 304 305 302 297 297 289 291 297 300 301 302 302 303 305 302 300 302 303 302 300 302 300 297 294 297 297 303 313 315 315 315 316 316 315 316 315 316 316 316 317 319 319 319 317 316 316
302 301 302 303 304 304 304 304 303 304 302 298 297 294 297 295 296 298 299 300 305 305 305 303 299 297 297 298 296 295 294 293 299 306 311 314 314 314 316 316 316 316 317 316 316 316 317 318 318 318 317 316 315 315
300 298 301 303 303 303 303 304 301 298 297 294 294 299 297 297 296 298 300 302 308 303 299 301 294 293 300 295 295 299 296 302 308 310 312 314 314 314 316 316 315 317 317 317 317 317 318 319 318 316 314 315 317 317
298 301 301 301 303 302 303 302 298 297 291 295 294 296 297 301 300 298 304 305 303 301 302 298 303 297 294 292 294 300 307 308 310 311 313 314 316 315 314 314 314 316 317 318 317 317 318 316 315 314 317 317 314 314
300 300 300 301 301 299 295 296 299 292 293 295 297 300 298 299 301 302 302 304 305 305 303 301 296 296 297 301 302 304 304 307 306 308 311 315 317 314 314 314 314 314 315 316 317 315 315 316 315 314 312 312 311 312
301 301 301 302 301 297 292 294 302 295 292 296 296 294 295 296 300 300 300 300 301 300 296 295 296 298 299 302 305 305 305 307 306 305 306 308 310 312 312 312 312 315 314 314 314 300 313 312 313 313 314 311 311 311
300 300 301 302 301 300 298 294 293 295 296 293 296 296 295 298 295 295 296 300 296 295 295 298 299 301 304 305 307 305 305 306 305 304 304 304 306 307 307 308 310 311 310 310 309 308 306 310 311 314 313 311 311 311
301 299 301 301 298 298 297 299 297 297 295 296 295 296 294 293 294 294 299 296 294 297 299 299 300 301 301 303 304 305 305 305 306 305 299 301 303 303 304 306 306 305 306 307 308 307 309 310 311 312 311 311 306 311
300 301 301 298 293 292 291 299 293 294 290 291 294 291 292 293 295 299 293 295 296 300 302 302 301 303 302 303 303 304 304 304 302 303 303 304 305 305 304 304 305 304 304 305 307 307 307 303 306 308 309 309 309 309
297 296 292 292 292 289 295 291 296 293 293 291 290 288 291 293 298 293 290 294 298 302 302 301 301 300 301 301 301 301 301 303 302 303 304 303 301 302 304 304 304 304 305 305 305 306 307 306 302 307 307 306 307 306
290 290 291 285 293 290 288 289 290 291 288 290 289 290 293 296 291 291 290 296 298 299 298 299 300 299 298 299 301 301 304 302 300 300 303 304 303 303 302 303 304 305 306 305 305 304 305 305 305 305 304 305 305 305
285 291 288 291 292 289 291 287 288 289 291 289 291 295 296 294 289 289 293 295 295 295 295 295 297 297 297 299 298 299 299 302 301 300 302 303 302 301 301 301 301 302 307 307 305 304 303 304 304 304 304 303 292 302
286 288 295 299 296 295 293 295 295 294 289 289 294 293 293 287 288 290 294 296 295 296 296 296 295 294 293 294 295 297 297 297 296 296 299 299 301 303 301 300 301 304 307 307 306 305 304 304 305 305 305 306 306 305
292 293 288 292 293 295 290 291 290 288 290 293 294 286 286 287 286 293 293 296 296 296 295 295 295 294 293 293 293 293 293 295 295 295 295 296 298 299 301 302 303 295 303 305 305 306 306 305 305 305 305 304 306 307
292 297 295 291 292 293 291 290 290 291 293 292 289 289 288 292 294 294 295 299 297 295 292 292 292 294 294 294 294 294 295 294 292 290 290 289 291 295 300 302 302 303 304 303 294 296 303 304 305 303 302 305 306 307
293 297 293 291 289 289 292 295 294 297 297 297 296 294 292 293 294 298 298 296 294 293 293 292 292 292 291 292 292 294 296 296 296 293 290 290 292 296 297 298 298 300 304 302 300 301 291 296 300 303 303 304 307 307
293 293 291 291 289 294 298 298 299 299 297 295 296 291 291 293 297 299 298 297 296 296 295 295 296 296 292 291 290 289 289 294 295 295 295 295 295 295 296 297 297 298 299 300 300 299 300 300 303 303 302 303 304 303
293 293 293 290 291 297 299 295 296 294 293 292 293 294 292 291 290 296 298 298 296 295 291 294 295 295 295 294 293 293 290 294 294 294 295 296 297 298 298 300 300 299 298 298 299 299 300 299 301 302 303 303 304 305
295 296 295 294 294 293 294 293 292 291 292 292 292 293 293 292 288 295 300 301 297 295 294 295 296 297 297 296 295 294 292 294 294 289 289 288 286 291 297 305 303 301 300 298 297 298 300 301 302 303 303 302 303 304
Wind_Speed
17 16 18 19 20 18 15 13 9 8 8 6 7 9 11 13 15 9 4 4 6 6 7 4 5 6 3 6 8 7 5 6 6 9 9 7 5 5 10 8 4 7 7 8 7 6 11 12 5 6 5 0 3 3
15 17 19 20 19 19 16 13 9 7 7 3 4 7 9 11 14 12 4 1 4 6 7 3 6 5 5 7 7 1 4 4 7 5 7 7 5 5 4 11 6 7 5 7 7 6 4 2 4 2 3 5 1 2
17 19 20 21 21 19 16 13 11 9 7 1 3 5 7 9 11 10 7 4 4 6 7 8 6 8 4 2 4 6 1 7 0 5 7 6 5 7 7 8 10 7 7 6 7 6 7 3 6 2 3 2 2 4
19 20 21 21 20 18 16 14 12 10 7 2 5 5 6 8 10 10 6 4 5 5 6 6 4 5 3 3 4 2 5 2 5 5 7 8 9 5 8 8 6 6 4 4 7 12 11 8 4 3 5 2 3 3
19 20 20 21 19 18 16 14 12 10 7 5 6 4 6 7 9 9 7 4 3 7 5 3 3 6 6 6 5 3 3 5 6 6 6 8 9 3 7 6 8 7 7 8 7 8 6 6 2 3 2 4 5 5
18 21 21 20 19 17 16 14 12 10 7 7 6 4 5 6 8 7 5 5 4 4 6 4 5 5 7 9 7 5 4 5 5 5 5 3 5 4 7 10 7 7 5 6 8 7 6 7 5 5 7 4 5 3
18 20 21 20 18 18 17 15 13 11 9 8 6 4 4 6 7 4 7 6 7 4 5 5 5 6 6 9 7 6 5 5 5 7 5 8 5 5 9 13 13 11 9 7 7 5 9 10 8 6 5 8 4 4
15 20 21 19 18 17 16 15 13 11 11 9 5 4 6 7 11 7 3 8 6 6 4 5 2 5 7 6 8 6 5 5 6 6 4 5 6 5 7 9 11 12 12 6 6 9 11 4 6 6 8 9 8 7
16 18 19 18 16 16 16 14 13 12 10 9 6 5 6 6 6 4 6 5 5 6 4 4 5 5 9 8 6 5 6 6 3 6 9 7 9 9 5 8 10 6 6 7 6 9 9 10 8 11 11 10 8 6
18 18 18 17 16 15 14 13 13 13 11 8 7 7 5 4 12 6 4 7 7 5 4 6 8 4 8 6 6 5 5 7 6 8 3 6 12 14 11 8 6 6 7 6 6 9 11 11 10 12 11 8 6 6
18 17 16 16 15 14 14 13 13 14 10 6 6 1 7 3 6 5 5 5 6 5 6 7 7 5 3 8 7 5 4 4 5 6 5 5 6 11 13 13 11 11 10 8 7 9 8 10 11 10 10 7 7 7
16 15 15 15 15 15 14 14 17 12 4 2 3 7 5 5 5 6 5 5 6 7 7 11 8 6 6 3 5 5 5 4 6 5 5 6 7 6 5 6 5 6 10 12 11 11 9 10 11 10 9 9 9 8
16 13 13 15 15 15 14 16 17 8 5 4 5 7 4 3 3 7 9 6 6 4 6 7 9 6 3 6 4 5 6 6 3 5 6 5 5 4 2 4 6 5 7 9 10 9 9 10 9 10 11 10 10 9
14 11 11 13 15 14 14 14 12 5 5 5 6 2 6 6 8 7 7 8 4 5 8 8 9 6 6 7 5 6 6 4 7 8 10 6 7 8 1 3 6 7 7 8 8 7 8 8 10 11 11 11 10 9
14 12 11 11 13 14 13 12 9 5 5 4 3 5 8 5 2 2 5 5 4 5 7 9 7 5 6 6 4 6 5 7 6 10 8 9 6 3 2 3 5 4 5 7 7 7 8 9 11 10 10 10 9 8
17 10 6 10 12 13 12 9 4 4 3 3 5 4 3 6 6 5 6 5 5 6 6 6 5 5 8 5 9 9 6 7 3 4 8 5 5 4 3 4 4 5 3 4 5 6 7 9 10 10 10 9 8 7
7 3 7 10 11 10 7 3 3 6 4 2 5 4 5 5 6 5 5 6 2 6 7 3 5 7 5 7 9 5 10 2 7 5 6 5 5 5 3 1 2 2 3 4 5 6 6 8 9 10 10 8 7 6
5 8 9 8 8 9 3 1 3 2 2 3 3 3 4 3 2 3 2 2 5 7 6 4 3 6 5 8 7 7 2 5 5 5 5 4 3 4 4 4 4 2 2 1 3 5 7 9 9 8 7 6 5 5
7 6 3 2 1 1 3 2 5 5 5 5 3 3 4 3 1 2 3 4 4 4 2 3 6 6 7 3 4 5 2 3 3 3 3 0 1 3 3 4 4 4 3 1 1 4 5 7 7 7 7 7 6 2
14 11 5 1 2 2 5 3 3 4 5 3 5 6 6 5 4 5 5 5 5 6 7 5 7 7 4 5 4 5 6 3 4 6 7 7 4 2 3 6 5 4 3 3 4 4 5 6 6 5 2 6 6 6
5 3 2 4 6 4 2 4 5 3 2 3 5 5 4 5 6 6 5 5 5 8 9 9 8 8 6 6 4 4 7 6 9 7 9 6 3 7 5 5 7 7 7 8 7 2 3 6 3 4 5 4 5 9
4 1 4 3 3 2 2 2 2 4 3 2 5 5 4 6 6 7 5 5 7 7 7 6 6 5 7 4 7 7 8 9 9 9 7 7 9 9 11 10 8 10 10 10 7 4 6 7 5 6 8 8 6 8
4 2 2 5 2 1 3 5 5 6 5 5 5 4 5 6 5 4 4 7 8 5 4 2 3 6 7 9 9 10 10 11 10 11 11 10 9 10 10 10 10 11 11 11 8 7 7 5 6 8 10 9 7 7
3 3 4 4 6 1 3 5 1 3 4 5 5 5 6 4 4 4 7 4 5 3 1 3 5 7 7 9 8 9 7 6 8 9 9 10 10 11 11 10 11 11 11 11 10 9 9 9 11 11 12 11 10 10
2 3 3 4 4 6 6 7 6 5 5 7 7 5 4 4 6 5 6 5 5 3 1 3 7 7 8 9 9 9 9 8 9 11 11 11 11 11 10 10 11 11 10 8 9 12 11 11 11 12 13 12 13 13
3 4 3 2 4 3 4 5 5 2 1 4 5 4 5 4 5 3 4 3 6 6 6 4 7 9 9 9 9 9 11 11 11 11 11 13 12 12 13 14 13 11 9 10 10 13 14 12 11 16 14 15 9 11
3 3 3 1 2 2 3 1 2 1 2 0 2 3 2 4 2 4 3 4 3 3 5 5 6 6 7 8 9 10 9 10 10 10 12 13 14 14 14 14 17 13 13 15 14 14 15 16 15 15 15 14 13 13
2 4 2 4 3 4 4 4 4 4 4 4 3 0 4 5 3 2 3 2 4 4 5 5 5 5 7 7 7 8 9 9 10 11 10 11 11 12 15 14 15 17 15 16 15 14 15 15 12 14 14 14 12 12
2 1 2 2 2 4 3 3 2 1 1 1 2 2 2 2 2 2 0 2 3 4 5 5 4 4 6 6 7 7 8 8 9 14 16 12 11 10 11 12 12 13 12 12 11 14 19 18 16 7 9 11 12 13
5 5 3 3 2 2 2 0 2 3 1 1 2 2 1 2 2 4 2 3 5 6 6 6 6 6 7 7 9 11 9 8 8 10 12 13 11 10 9 10 12 13 13 12 11 13 10 13 15 14 13 11 11 13
0 1 1 2 1 1 2 5 4 2 3 3 5 2 1 0 2 3 1 3 4 6 7 9 8 5 7 9 8 10 11 8 12 16 15 12 13 13 13 13 12 12 12 11 10 9 11 10 14 16 17 17 18 17
3 4 2 4 3 4 3 1 2 2 2 1 1 3 3 1 2 1 0 3 6 7 8 9 10 10 8 6 8 9 12 12 14 14 19 11 10 11 11 10 7 8 9 11 9 9 12 13 12 15 16 18 20 20
3 2 2 2 4 6 5 4 2 2 3 2 1 0 1 1 0 2 2 2 6 8 8 9 9 9 9 8 9 11 12 12 16 12 11 11 10 10 8 7 5 6 8 8 8 10 13 15 13 18 15 14 16 18
Wind_Direction
186 179 174 171 163 160 161 161 161 129 91 49 18 356 351 352 351 336 35 14 319 296 72 350 358 324 291 257 259 78 201 194 220 244 257 238 269 157 272 267 239 270 303 287 261 302 292 24 340 352 39 245 313 38
183 176 173 167 164 159 161 159 164 133 107 61 358 340 342 346 344 339 262 88 317 270 24 333 315 315 333 353 324 226 3 312 10 257 234 276 208 242 275 291 78 260 301 333 351 332 1 313 333 40 288 281 34 20
184 179 171 168 163 161 161 162 162 140 112 37 302 320 330 336 340 339 322 354 241 276 253 222 212 141 211 239 4 293 180 358 29 335 311 316 286 296 273 231 255 194 163 248 270 255 310 21 301 231 215 285 94 114
175 168 165 164 163 161 159 167 161 142 137 216 271 297 317 324 331 325 277 38 285 301 275 122 145 214 120 218 213 277 327 309 287 263 269 260 264 243 259 299 312 39 130 213 272 262 258 247 216 342 155 173 165 150
164 161 162 163 166 162 164 166 161 152 159 215 244 275 300 316 323 291 271 254 280 305 318 104 132 199 217 217 212 216 229 268 248 225 229 246 260 317 265 306 285 262 238 268 288 0 327 320 119 142 197 199 193 160
172 167 167 167 167 166 164 165 164 165 177 210 224 252 285 310 323 255 210 183 216 252 279 241 101 175 200 208 201 203 205 246 262 269 263 262 81 304 263 262 249 274 286 247 283 334 312 295 315 280 266 184 144 166
171 172 169 167 166 164 166 168 171 171 184 211 216 241 283 301 278 288 2 16 343 262 245 242 191 170 197 193 198 210 179 244 262 259 244 269 225 206 264 261 274 279 267 238 272 256 261 254 253 216 224 125 129 129
174 169 163 160 163 166 168 168 170 179 183 206 195 230 266 283 279 251 135 219 280 248 252 257 136 175 196 187 203 227 223 205 213 249 222 266 236 231 257 253 258 265 266 264 238 238 251 260 212 164 154 163 168 183
149 149 158 162 166 170 166 168 175 174 184 175 193 231 230 229 208 90 114 165 227 302 267 218 210 170 163 220 200 155 240 224 184 236 234 235 228 223 241 243 250 233 222 222 220 225 214 227 200 178 177 188 202 160
160 162 157 160 166 164 161 174 172 167 158 167 211 209 180 119 123 147 168 179 189 220 227 260 260 148 193 170 174 185 185 236 212 208 197 238 249 249 224 237 255 222 210 229 239 222 216 224 217 194 198 201 198 130
149 150 154 157 160 157 158 163 157 146 166 209 201 167 75 100 193 221 191 217 185 214 205 227 224 169 216 195 192 222 172 209 240 178 213 221 241 220 225 235 234 243 245 239 241 262 241 233 229 190 197 154 140 150
144 149 155 153 153 156 161 159 158 198 175 19 346 107 147 210 207 187 203 205 217 223 162 202 185 227 135 292 239 139 242 202 247 111 225 239 251 182 194 214 212 242 243 235 231 234 239 209 217 185 162 162 160 132
124 130 153 159 160 161 162 165 187 346 275 189 228 169 189 159 145 203 197 189 198 182 144 188 175 176 129 233 230 186 231 225 135 223 227 243 94 95 46 298 247 241 224 210 209 212 222 204 181 159 161 164 152 150
124 124 142 154 157 162 163 174 190 247 259 226 155 115 209 194 217 199 216 201 122 168 165 185 174 197 208 182 208 222 224 232 224 224 227 241 157 108 108 296 269 230 213 196 192 198 193 184 161 165 167 160 161 156
130 118 116 127 146 153 155 161 180 224 267 204 194 211 200 227 298 144 18 83 141 159 165 189 162 236 177 219 209 233 189 233 217 235 238 80 83 71 18 314 283 256 213 214 213 212 223 184 162 170 166 166 168 160
122 98 113 136 141 144 148 163 163 248 244 223 222 232 223 195 148 180 198 158 153 194 177 190 158 206 199 231 197 218 222 234 262 87 72 87 45 36 342 287 274 284 256 226 206 205 205 169 169 172 169 180 170 177
89 83 143 132 134 142 185 145 248 215 268 206 210 281 207 234 165 158 192 132 215 191 192 192 217 194 221 217 223 232 241 341 71 82 69 49 22 14 340 281 227 236 229 215 200 170 171 158 168 172 185 179 199 185
93 120 121 105 160 149 118 33 265 192 230 241 254 196 244 288 101 112 98 128 221 216 212 205 313 220 224 220 230 226 82 57 13 24 60 73 51 35 41 34 33 42 128 184 182 169 170 179 182 188 200 181 200 206
127 124 134 17 93 41 71 75 255 210 202 208 197 192 251 213 38 340 166 136 293 359 324 208 236 234 236 287 328 4 42 273 238 160 108 182 333 49 67 58 35 55 75 78 186 211 186 202 224 186 203 186 232 262
108 124 142 193 233 170 155 165 229 234 204 195 211 218 226 227 237 227 240 231 213 206 220 231 250 268 306 346 8 302 340 10 290 228 199 173 198 240 254 322 319 76 259 189 225 318 210 204 217 218 282 333 274 271
151 103 179 212 194 243 259 182 177 166 186 212 215 219 217 203 224 233 222 220 245 249 256 272 278 291 348 326 307 349 327 320 296 309 318 308 334 299 262 243 235 250 268 276 251 169 231 254 293 295 255 260 281 306
106 310 201 166 254 195 231 189 210 160 194 248 184 201 226 221 225 219 212 217 221 226 233 245 272 296 314 260 280 294 288 281 275 280 267 256 266 271 272 277 269 268 263 265 246 234 237 231 263 262 263 249 231 258
172 181 195 207 239 139 218 180 198 184 181 181 170 194 207 200 194 188 215 220 227 225 247 251 322 297 293 297 290 277 268 273 275 275 275 272 268 273 279 279 275 277 278 273 264 241 236 225 218 239 252 249 243 242
168 237 230 200 200 194 171 197 191 208 180 179 201 208 184 154 181 213 233 214 105 138 64 17 267 260 253 242 255 262 272 271 276 277 269 268 266 264 264 267 265 261 260 265 262 252 234 238 234 227 236 249 247 240
241 257 169 250 225 193 189 179 190 196 207 188 202 209 163 162 196 216 204 106 104 117 121 304 328 327 317 312 304 296 306 313 318 313 292 273 275 274 270 265 260 257 261 260 259 259 255 252 258 257 251 246 249 251
254 183 209 211 146 191 185 194 172 170 218 177 216 167 195 216 235 107 71 54 49 41 29 345 310 309 300 305 314 320 331 332 319 295 282 281 292 295 281 276 275 266 249 245 250 255 254 247 250 254 252 249 242 257
251 137 149 308 316 250 258 13 0 260 221 317 24 341 265 222 80 71 119 44 21 354 327 313 304 298 291 294 296 293 294 290 278 276 289 293 293 287 282 278 274 276 282 283 279 268 256 264 261 252 253 246 241 249
345 315 19 35 21 6 345 19 33 36 8 19 289 225 345 23 73 62 59 14 2 329 313 306 294 285 283 282 280 280 278 277 278 277 272 265 260 263 266 267 267 273 273 271 270 274 275 277 267 265 263 268 276 255
217 130 77 91 25 75 45 40 63 70 20 336 315 33 95 38 35 79 287 317 328 314 321 314 301 288 281 272 268 267 269 272 276 274 273 273 271 260 263 257 247 251 256 261 244 233 253 257 265 313 331 293 272 261
49 340 30 70 50 56 100 115 112 95 151 56 89 149 115 115 167 249 320 14 347 338 326 314 296 293 297 300 303 306 306 294 280 275 281 281 276 280 274 266 265 268 261 226 234 255 237 233 245 256 256 253 249 255
30 306 89 67 75 197 123 124 115 58 2 58 89 73 79 168 215 210 337 356 326 310 313 326 321 338 321 319 308 299 295 292 295 291 280 276 275 271 266 258 248 243 250 246 226 227 236 245 235 223 231 231 237 252
202 228 225 147 158 182 135 25 282 92 118 275 86 124 149 229 247 190 84 308 312 334 329 324 327 327 330 307 293 286 281 297 306 304 304 289 277 269 264 261 258 221 215 228 222 225 227 231 245 233 220 222 222 232
171 172 159 155 169 179 185 199 197 183 182 221 128 120 111 64 10 293 271 304 345 335 334 329 324 322 312 307 303 304 311 310 308 303 318 312 273 280 289 290 214 220 208 196 205 224 227 220 224 232 241 230 220 220